Location: Kernascl�den
(48.0062°N, 3.3198°W)
Time: 21:56:15
(UTC+00:00)

SJ 16-02 - Pass Details

Date: 21 January 2021
Orbit: 606 x 616 km, 75.0° (Epoch: 04 March)

Event Time Altitude Azimuth Distance (km) Brightness Sun altitude
Rises 17:25:35 0° 151° (SSE) 2,866 4.7 -5.2°
Reaches altitude 10° 17:28:43 10° 127° (SE) 1,966 3.7 -5.7°
Maximum altitude 17:31:04 14° 95° (E) 1,694 3.1 -6.0°
Drops below altitude 10° 17:33:26 10° 62° (ENE) 1,971 3.3 -6.4°
Enters shadow 17:34:22 - 53° (NE) 2,197 3.5 -6.5°
